Albuquerque, NM

8:05 PM MDT on June 25, 2017 (GMT -0600)
Albuquerque International Sunport

Weather History for KABQ - September, 2011

Change the Weather History Date:

Saturday, September 24, 2011

  Actual Average Record
Temperature  
Mean Temperature 70 °F 66 °F  
Max Temperature 87 °F 78 °F 91 °F (1979)
Min Temperature 53 °F 55 °F 39 °F (1916)
Degree Days  
Heating Degree Days 0 2  
Month to date heating degree days 0 12  
Since 1 July heating degree days 0 12  
Cooling Degree Days 5 3  
Month to date cooling degree days 136 144  
Year to date cooling degree days 1663 1301  
Growing Degree Days 22 (Base 50)    
Moisture  
Dew Point 20 °F    
Average Humidity 18    
Maximum Humidity 28    
Minimum Humidity 7    
Precipitation  
Precipitation 0.00 in 0.04 in 1.92 in (1955)
Month to date precipitation 0.40 0.86  
Year to date precipitation 1.91 7.14  
Snow  
Snow 0.00 in - - ()
Month to date snowfall 0.0  
Since 1 July snowfall 0.0  
Since 1 September snowfall 0.0  
Snow Depth 0.00 in    
Sea Level Pressure  
Sea Level Pressure 29.97 in    
Wind  
Wind Speed 6 mph (North)    
Max Wind Speed 18 mph    
Max Gust Speed 23 mph    
Visibility 10 miles    
Events      
T = Trace of Precipitation, MM = Missing Value Source: NWS Daily Summary

Daily Weather History Graph

Daily Weather History Graph

Search for Another Location

Airport or City:

Trip Planner

Search our weather history database for the weather conditions in past years. The results will help you decide how hot, cold, wet, or windy it might be!

Date:

Astronomy

Sep. 24, 2011 Rise Set
Actual Time 6:55 AM MDT 7:00 PM MDT
Civil Twilight 6:30 AM MDT 7:25 PM MDT
Nautical Twilight 6:01 AM MDT 7:55 PM MDT
Astronomical Twilight 5:31 AM MDT 8:25 PM MDT
Moon 3:41 AM MDT (9/24) 5:03 PM MDT (9/24)
Length of Visible Light 12h 55m
Length of Day
12h 04m
Waning Crescent, 11% of the Moon is Illuminated
Sep 24
Waning Crescent
Sep 27
New
Oct 3
First Quarter
Oct 11
Full
Oct 19
Last Quarter

Hourly Weather History & Observations

Time (MDT) Temp. Dew Point Humidity Pressure Visibility Wind Dir Wind Speed Gust Speed Precip Events Conditions
12:56 AM 60.1 °F 19.0 °F 20% 30.04 in 10.0 mi ESE 4.6 mph - N/A   Scattered Clouds
1:56 AM 62.6 °F 19.4 °F 19% 30.02 in 8.0 mi East 4.6 mph - N/A   Scattered Clouds
2:11 AM 62.6 °F 19.4 °F 19% 30.24 in 8.0 mi East 4.6 mph - N/A   Scattered Clouds
2:56 AM 60.8 °F 21.2 °F 22% 30.01 in 9.0 mi ENE 3.5 mph - N/A   Scattered Clouds
3:56 AM 60.8 °F 19.4 °F 20% 30.00 in 8.0 mi NE 5.8 mph - N/A   Scattered Clouds
4:56 AM 60.8 °F 23.0 °F 23% 29.99 in 9.0 mi North 5.8 mph - N/A   Partly Cloudy
5:25 AM 59.0 °F 23.0 °F 25% 30.22 in 9.0 mi NNE 9.2 mph - N/A   Scattered Clouds
5:56 AM 59.0 °F 23.0 °F 25% 30.01 in 9.0 mi North 8.1 mph - N/A   Scattered Clouds
6:56 AM 57.2 °F 24.8 °F 29% 30.03 in 10.0 mi North 8.1 mph - N/A   Scattered Clouds
7:56 AM 57.2 °F 23.0 °F 27% 30.04 in 10.0 mi ENE 3.5 mph - N/A   Scattered Clouds
8:56 AM 62.6 °F 24.8 °F 24% 30.04 in 10.0 mi NNW 5.8 mph - N/A   Scattered Clouds
9:56 AM 64.9 °F 27.0 °F 24% 30.06 in 9.0 mi NNE 6.9 mph - N/A   Partly Cloudy
10:56 AM 72.0 °F 27.0 °F 19% 30.02 in 10.0 mi NW 3.5 mph - N/A   Partly Cloudy
11:56 AM 77.0 °F 25.0 °F 15% 30.00 in 10.0 mi WNW 3.5 mph - N/A   Partly Cloudy
12:56 PM 81.0 °F 23.0 °F 12% 29.97 in 10.0 mi Variable 3.5 mph - N/A   Clear
1:56 PM 82.0 °F 21.0 °F 10% 29.93 in 10.0 mi Calm Calm - N/A   Clear
2:56 PM 82.9 °F 21.0 °F 10% 29.89 in 10.0 mi Calm Calm - N/A   Clear
3:56 PM 86.0 °F 18.0 °F 8% 29.86 in 10.0 mi NW 12.7 mph - N/A   Clear
4:56 PM 87.1 °F 17.1 °F 8% 29.83 in 10.0 mi West 15.0 mph - N/A   Clear
5:56 PM 84.9 °F 18.0 °F 8% 29.83 in 10.0 mi West 9.2 mph - N/A   Clear
6:56 PM 82.4 °F 12.2 °F 7% 29.85 in 10.0 mi NNW 13.8 mph - N/A   Partly Cloudy
7:56 PM 79.0 °F 12.0 °F 8% 29.87 in 10.0 mi NNW 6.9 mph - N/A   Clear
8:56 PM 75.9 °F 12.0 °F 9% 29.88 in 10.0 mi North 6.9 mph - N/A   Clear
9:56 PM 73.0 °F 15.1 °F 11% 29.88 in 10.0 mi NNE 5.8 mph - N/A   Clear
10:56 PM 73.0 °F 15.1 °F 11% 29.86 in 10.0 mi North 6.9 mph - N/A   Clear
11:56 PM 70.0 °F 17.1 °F 13% 29.85 in 10.0 mi WNW 3.5 mph - N/A   Clear